Tracking 25711 objects as of 22-May-2022
HD Live streaming from Space Station
objects crossing your sky now

CZ-3C DEB

Track CZ-3C DEB now!


NORAD ID: 39352
Int'l Code: 2010-057S
Perigee: 653.2 km
Apogee: 36,853.7 km
Inclination: 20.9 °
Period: 660.5 minutes
Semi major axis: 25124 km
RCS: 0.6339 m2 (medium)
Launch date: October 31, 2010
Source: People's Republic of China (PRC)
Launch site: Xichang Space Center, China (XSC)

Note: This is SATELLITE DEBRIS
aabbcc
Your satellite tracking list
Your tracking list is empty




NASA's NSSDC Master Catalog

Two Line Element Set (TLE):
1 39352U 10057S   22141.15796736  .00000125  00000-0  33174-2 0  9997
2 39352  20.9017 299.8277 7204235 213.9055 352.9446  2.18001042 68549
Source of the keplerian elements: AFSPC